Orlando International, FL

8:33 AM EST on November 19, 2017 (GMT -0500)
Orlando International

Weather History for KMCO - September, 2012

Change the Weather History Date:

Thursday, September 6, 2012

  Actual Average Record
Temperature  
Mean Temperature 82 °F 82 °F  
Max Temperature 92 °F 91 °F 100 °F (1921)
Min Temperature 71 °F 74 °F 62 °F (1893)
Degree Days  
Heating Degree Days 0 0  
Month to date heating degree days 0 0  
Since 1 July heating degree days 0 0  
Cooling Degree Days 17 17  
Month to date cooling degree days 103 102  
Year to date cooling degree days 2708 2495  
Growing Degree Days 31 (Base 50)    
Moisture  
Dew Point 73 °F    
Average Humidity 82    
Maximum Humidity 100    
Minimum Humidity 63    
Precipitation  
Precipitation 2.25 in 0.21 in 3.61 in (1933)
Month to date precipitation 2.41 1.28  
Year to date precipitation 31.02 37.89  
Sea Level Pressure  
Sea Level Pressure 30.00 in    
Wind  
Wind Speed 4 mph (South)    
Max Wind Speed 29 mph    
Max Gust Speed 35 mph    
Visibility 9 miles    
Events Rain , Thunderstorm    
T = Trace of Precipitation, MM = Missing Value Source: NWS Daily Summary

Daily Weather History Graph

Daily Weather History Graph

Search for Another Location

Airport or City:

Trip Planner

Search our weather history database for the weather conditions in past years. The results will help you decide how hot, cold, wet, or windy it might be!

Date:

Astronomy

Sep. 06, 2012 Rise Set
Actual Time 7:06 AM EDT 7:40 PM EDT
Civil Twilight 6:42 AM EDT 8:03 PM EDT
Nautical Twilight 6:14 AM EDT 8:31 PM EDT
Astronomical Twilight 5:46 AM EDT 9:00 PM EDT
Moon 11:23 PM EDT (9/6) 12:30 PM EDT (9/6)
Length of Visible Light 13h 21m
Length of Day
12h 33m
Waning Gibbous, 67% of the Moon is Illuminated
Sep 6
Waning Gibbous
Sep 8
Last Quarter
Sep 15
New
Sep 22
First Quarter
Sep 29
Full

Hourly Weather History & Observations

Time (EDT) Temp. Heat Index Dew Point Humidity Pressure Visibility Wind Dir Wind Speed Gust Speed Precip Events Conditions
12:53 AM 73.0 °F - 72.0 °F 96% 30.00 in 10.0 mi South 5.8 mph - N/A   Scattered Clouds
1:53 AM 73.9 °F - 72.0 °F 93% 29.99 in 10.0 mi SSW 4.6 mph - N/A   Partly Cloudy
2:53 AM 73.9 °F - 72.0 °F 93% 29.97 in 10.0 mi SW 5.8 mph - N/A   Clear
3:53 AM 73.0 °F - 72.0 °F 96% 29.98 in 10.0 mi Calm Calm - N/A   Partly Cloudy
4:53 AM 72.0 °F - 71.1 °F 97% 29.98 in 10.0 mi Calm Calm - N/A   Partly Cloudy
5:53 AM 72.0 °F - 72.0 °F 100% 30.00 in 10.0 mi SE 5.8 mph - N/A   Partly Cloudy
6:53 AM 72.0 °F - 72.0 °F 100% 30.01 in 10.0 mi Calm Calm - N/A   Partly Cloudy
7:53 AM 73.9 °F - 73.0 °F 97% 30.02 in 10.0 mi Calm Calm - N/A   Clear
8:53 AM 77.0 °F - 73.9 °F 90% 30.02 in 10.0 mi Variable 3.5 mph - N/A   Clear
9:53 AM 81.0 °F 86.2 °F 73.9 °F 79% 30.03 in 10.0 mi SSW 8.1 mph - N/A   Partly Cloudy
10:53 AM 84.0 °F 91.2 °F 73.9 °F 72% 30.03 in 10.0 mi SSW 8.1 mph - N/A   Partly Cloudy
11:53 AM 86.0 °F 93.8 °F 73.9 °F 67% 30.03 in 10.0 mi SW 3.5 mph - N/A   Scattered Clouds
12:53 PM 87.1 °F 94.5 °F 73.0 °F 63% 30.02 in 10.0 mi SSE 5.8 mph - N/A   Scattered Clouds
1:53 PM 89.1 °F 97.0 °F 73.0 °F 59% 30.00 in 10.0 mi South 5.8 mph - 0.00 in Rain Light Rain
2:53 PM 90.0 °F 99.0 °F 73.9 °F 59% 29.97 in 10.0 mi South 9.2 mph - 0.00 in   Mostly Cloudy
3:27 PM 75.2 °F - 73.4 °F 94% 30.00 in 1.5 mi WSW 26.5 mph 33.4 mph 0.17 in Rain , Thunderstorm Heavy Thunderstorms and Rain
3:32 PM 73.4 °F - 73.4 °F 100% 30.01 in 1.5 mi WSW 25.3 mph 34.5 mph 0.51 in Rain , Thunderstorm Heavy Thunderstorms and Rain
3:39 PM 73.4 °F - 73.4 °F 100% 30.03 in 1.5 mi West 21.9 mph 32.2 mph 1.07 in Rain , Thunderstorm Heavy Thunderstorms and Rain
3:53 PM 73.0 °F - 73.0 °F 100% 30.03 in 1.5 mi West 5.8 mph - 1.79 in Rain , Thunderstorm Heavy Thunderstorms and Rain
4:09 PM 73.4 °F - 71.6 °F 94% 30.02 in 2.0 mi SSE 4.6 mph - 0.35 in Rain , Thunderstorm Heavy Thunderstorms and Rain
4:18 PM 73.4 °F - 71.6 °F 94% 30.02 in 6.0 mi SE 3.5 mph - 0.40 in Rain , Thunderstorm Thunderstorms and Rain
4:41 PM 73.4 °F - 71.6 °F 94% 30.00 in 9.0 mi North 3.5 mph - 0.43 in Rain Light Rain
4:53 PM 73.9 °F - 72.0 °F 93% 29.97 in 10.0 mi Calm Calm - 0.43 in Rain Light Rain
5:53 PM 75.9 °F - 75.0 °F 97% 29.97 in 10.0 mi East 8.1 mph - 0.03 in Rain Light Rain
6:53 PM 75.9 °F - 73.9 °F 94% 30.00 in 10.0 mi SE 3.5 mph - 0.00 in   Mostly Cloudy
7:53 PM 75.0 °F - 73.9 °F 96% 29.99 in 10.0 mi SSE 6.9 mph - N/A   Mostly Cloudy
8:53 PM 73.9 °F - 73.9 °F 100% 30.01 in 10.0 mi South 4.6 mph - N/A   Mostly Cloudy
9:53 PM 73.9 °F - 73.9 °F 100% 30.00 in 10.0 mi South 4.6 mph - N/A   Scattered Clouds
10:53 PM 73.9 °F - 73.0 °F 97% 29.99 in 10.0 mi Calm Calm - N/A   Scattered Clouds
11:53 PM 73.9 °F - 73.9 °F 100% 29.98 in 10.0 mi SW 5.8 mph - N/A   Partly Cloudy